LRBM Weather Reports


time (UTC)temp
F
wind
direction
speed
knots
gust
knots
rain 1hr
in
rain 24hr
in
rain mn
in
humidity
%
barometer
mb
20260504231835 50 70 4.3 0.0 0.00 0.00 0.00 62 1016.0
20260504230335 50 70 4.3 0.0 0.00 0.00 0.00 62 1016.0
20260504224835 50 80 2.6 0.0 0.00 0.00 0.00 62 1016.0
20260504223335 50 80 2.6 0.0 0.00 0.00 0.00 62 1016.0
20260504221858 50 1.7 0.0 0.00 0.00 0.00 67 1016.0
20260504220335 50 1.7 0.0 0.00 0.00 0.00 67 1016.0
20260504214835 52 90 4.3 0.0 0.00 0.00 0.00 62 1016.0
20260504213351 52 90 4.3 0.0 0.00 0.00 0.00 62 1016.0
20260504211835 50 90 4.3 0.0 0.00 0.00 0.00 71 1016.0
20260504210335 50 90 4.3 0.0 0.00 0.00 0.00 71 1016.0
20260504204835 54 50 2.6 0.0 0.00 0.00 0.00 58 1016.0
20260504203336 54 50 2.6 0.0 0.00 0.00 0.00 58 1016.0
20260504201835 57 30 2.6 0.0 0.00 0.00 0.00 51 1016.0
20260504200336 57 30 2.6 0.0 0.00 0.00 0.00 51 1016.0
20260504194835 59 2.6 0.0 0.00 0.00 0.00 48 1016.0
20260504193336 59 2.6 0.0 0.00 0.00 0.00 48 1016.0
20260504191835 61 340 5.2 0.0 0.00 0.00 0.00 45 1016.0
20260504190335 61 340 5.2 0.0 0.00 0.00 0.00 45 1016.0
20260504184835 61 0.9 0.0 0.00 0.00 0.00 48 1016.0
20260504183346 61 0.9 0.0 0.00 0.00 0.00 48 1016.0
20260504181835 64 360 2.6 0.0 0.00 0.00 0.00 43 1015.0
20260504180335 64 360 2.6 0.0 0.00 0.00 0.00 43 1015.0
20260504174835 68 350 4.3 0.0 0.00 0.00 0.00 38 1015.0
20260504173336 68 350 4.3 0.0 0.00 0.00 0.00 38 1015.0
20260504171835 73 300 2.6 0.0 0.00 0.00 0.00 27 1015.0
20260504170335 73 300 2.6 0.0 0.00 0.00 0.00 27 1015.0
20260504160336 75 270 7.8 0.0 0.00 0.00 0.00 24 1015.0
20260504150335 77 280 7.8 0.0 0.00 0.00 0.00 21 1015.0
20260504140336 77 280 7.8 0.0 0.00 0.00 0.00 21 1016.0
20260504130335 77 270 11.3 0.0 0.00 0.00 0.00 22 1017.0
20260504110336 75 270 12.2 0.0 0.00 0.00 0.00 27 1018.0
20260504100335 73 270 12.2 0.0 0.00 0.00 0.00 29 1018.0
20260504081835 64 250 6.1 0.0 0.00 0.00 0.00 46 1019.0
20260504080335 64 250 6.1 0.0 0.00 0.00 0.00 46 1019.0
20260504070336 57 270 2.6 0.0 0.00 0.00 0.00 55 1020.0
20260504050345 48 90 1.7 0.0 0.00 0.00 0.00 76 1020.0
20260504044836 45 80 2.6 0.0 0.00 0.00 0.00 81 1020.0
20260504043335 45 80 2.6 0.0 0.00 0.00 0.00 81 1020.0
20260504041835 41 0.9 0.0 0.00 0.00 0.00 87 1020.0
20260504040335 41 0.9 0.0 0.00 0.00 0.00 87 1020.0
20260504034836 39 0 0.0 0.0 0.00 0.00 0.00 93 1019.0
20260504033335 39 0 0.0 0.0 0.00 0.00 0.00 93 1019.0
20260504031835 39 1.7 0.0 0.00 0.00 0.00 93 1019.0
20260504030455 39 1.7 0.0 0.00 0.00 0.00 93 1019.0
20260504024836 41 1.7 0.0 0.00 0.00 0.00 87 1019.0
20260504023335 41 1.7 0.0 0.00 0.00 0.00 87 1019.0
20260504021835 41 80 2.6 0.0 0.00 0.00 0.00 87 1019.0
20260504020335 41 80 2.6 0.0 0.00 0.00 0.00 87 1019.0
20260504014835 41 1.7 0.0 0.00 0.00 0.00 87 1019.0
20260504013340 41 1.7 0.0 0.00 0.00 0.00 87 1019.0
20260504011954 43 0 0.0 0.0 0.00 0.00 0.00 81 1019.0
20260504010335 43 0 0.0 0.0 0.00 0.00 0.00 81 1019.0
20260504004955 43 100 2.6 0.0 0.00 0.00 0.00 81 1019.0
20260504003335 43 100 2.6 0.0 0.00 0.00 0.00 81 1019.0
20260504001835 43 90 2.6 0.0 0.00 0.00 0.00 81 1019.0
20260504000336 43 90 2.6 0.0 0.00 0.00 0.00 81 1019.0
20260503234915 46 0.9 0.0 0.00 0.00 0.00 76 1019.0
20260503233335 46 0.9 0.0 0.00 0.00 0.00 76 1019.0